User: anonymous   Login
Location: Boca do Mato
(22.9085°S, 43.2930°W)
Time: 06:55:49
(UTC+00:00)
Language:

PSLV R/B - Orbit

View from above orbital plane
View from above orbital plane
View from above satellite
View from above satellite

Ground track
Ground track

The orbit data is extracted from the following two-line orbital elements,

1 26960U 01049D   20273.90845936 +.00000690 +00000-0 +47357-4 0  9990
2 26960 097.8178 268.9219 0055539 046.8718 313.7135 15.08326218034986
Epoch (UTC): 29 September 2020 21:48:10
Eccentricity: 0.0055539
inclination: 97.8178°
perigee height: 503 km
apogee height: 580 km
right ascension of ascending node: 268.9219°
argument of perigee: 46.8718°
revolutions per day: 15.08326218
mean anomaly at epoch: 313.7135°
orbit number at epoch: 3498

The dashed part of the orbit path shows where the satellite is in the earth's shadow,  

DLR